Regional Weather Roundup
Issued by NWS Sioux Falls, SD

Home | Current Version | Previous Version | Text Only | Print | Product List | Glossary On
Versions: 1 2 3 4 5 6 7 8 9 10 11 12 13 14 15 16 17 18 19 20 21 22 23 24 25 26 27 28 29 30 31 32 33 34 35 36 37 38 39 40 41 42 43 44 45 46 47 48 49 50
000
ASUS43 KFSD 241510
RWRFSD

WEATHER ROUNDUP FOR SE SOUTH DAKOTA/SW MINNESOTA/NW IOWA
NATIONAL WEATHER SERVICE SIOUX FALLS SD
1000 AM CDT THU JUL 24 2014

NOTE: "FAIR" INDICATES FEW OR NO CLOUDS BELOW 12,000 FEET WITH NO
SIGNIFICANT WEATHER AND OR OBSTRUCTIONS TO VISIBILITY.


SDZ038>040-050-052>070-241600-
SOUTHEAST SOUTH DAKOTA

CITY           SKY/WX    TMP DP  RH WIND       PRES   REMARKS
CHAMBERLAIN    MOSUNNY   73  62  69 SE24G37   29.93F
HURON          LGT RAIN  68  63  84 SE10      29.96F
MADISON        FAIR      66  64  94 SE13      30.06F
MITCHELL       MOSUNNY   73  64  73 MISG      29.97F
SIOUX FALLS    PTSUNNY   69  62  78 SE9       30.06R
WINNER         FAIR      80  63  55 SE20G29   29.92F
YANKTON        PTSUNNY   70  63  78 S16       30.05F
$$

MNZ071-072-080-081-089-090-097-098-241600-
SOUTHWEST MINNESOTA

CITY           SKY/WX    TMP DP  RH WIND       PRES   REMARKS
FAIRMONT       PTSUNNY   73  57  56 SW6       30.16S
JACKSON        CLOUDY    72  59  64 S7        30.14F
LUVERNE        PTSUNNY   70  61  73 S14       30.09S
MARSHALL       SUNNY     73  57  56 SE10G16   30.07F
MONTEVIDEO     MOSUNNY   73  57  56 S9        30.09F
PIPESTONE      MOSUNNY   72  61  68 S13       30.09R
REDWOOD FALLS  MOSUNNY   73  56  54 SE9       30.09F
TRACY          MOSUNNY   74  59  59 SE12      30.08F
WINDOM         PTSUNNY   73  57  56 S8        30.11F
WORTHINGTON    CLOUDY    70  57  64 S14G20    30.10F
$$

IAZ001>003-012>014-020>022-031-032-NEZ013-014-SDZ071-241600-
NORTHWEST IOWA

CITY           SKY/WX    TMP DP  RH WIND       PRES   REMARKS
CHEROKEE       LGT RAIN  65  62  89 S5        30.19R
DENISON        PTSUNNY   70  61  73 SW5       30.19R
ESTHERVILLE    CLOUDY    70  61  73 SW8       30.16S
LE MARS        LGT RAIN  64  63  94 SE22G30   30.01F
ORANGE CITY    LGT RAIN  64  61  88 S18G32    29.99F
SHELDON        CLOUDY    66  61  82 SE14G24   30.05F
SIOUX CITY     LGT RAIN  65  63  93 SE8       30.15F
SPENCER        CLOUDY    69  61  75 S9        30.16F
STORM LAKE     CLOUDY    68  63  83 W6G13     30.23R
$$

ABBREVIATIONS USED IN REMARKS
   TC - TEMPERATURE IN CELSIUS
  WCI - WIND CHILL INDEX
   HX - HEAT INDEX
  VSB - VISIBILITY




USA.gov is the U.S. government's official web portal to all federal, state and local government web resources and services.